レモン彗星

P/2017 TW13 ( Lemmon )

English version
Home page
Updated on February 9, 2019

---------------------------------------------------------------------

・ プロフィール

発見日 2017年9月1日
発見光度 20.2等
発見者 J. A. Johnson (Mount Lemmon)

・ 写真集

・ 軌道要素

Epoch 2018 June 11.0 TT = JDT 2458280.5
T 2018 June 20.98437 TT                                 MPCW
q   2.0788061            (2000.0)            P               Q
n   0.05142187     Peri.  120.10927     -0.02145800     -0.90190042
a   7.1620520      Node   322.27641     +0.48415681     +0.36816238
e   0.7097471      Incl.   44.83674     +0.87471809     -0.22590284
P  19.17
From 146 observations 2017 Aug. 31-2018 Nov. 14, mean residual 0".4.

・ 光度変化

        m1 = 11.5 + 5 logΔ + 12.5 log r

---------------------------------------------------------------------

軌道要素はM.P.E.C. 2018-W75に掲載されたものです。
光度グラフはComet for Windowsで作成したものです。

---------------------------------------------------------------------

Copyright(C) Seiichi Yoshida (comet@aerith.net). All rights reserved.